Location: Sibbertoft
(52.4361°N, 1.0300°W)
Time: 03:26:34
(UTC+01:00)

N. Korean satellite - Visible Passes

Search period start: 16 October 2019 00:00
Search period end: 26 October 2019 00:00
Orbit: 455 x 508 km, 97.2° (Epoch: 14 October)

Date Brightness Start Highest point End Pass type
(mag) Time Alt. Az. Time Alt. Az. Time Alt. Az.
16 Oct 10.2 05:56:38 10° ENE 05:58:24 13° E 06:00:11 10° ESE visible
17 Oct 10.2 19:19:57 10° WSW 19:21:30 13° W 19:23:05 10° WNW visible
18 Oct 8.5 06:38:12 10° NNE 06:41:32 35° E 06:44:53 10° SSE visible
18 Oct 9.4 18:53:13 10° SSW 18:55:58 22° W 18:58:46 10° NW visible
19 Oct 9.7 06:13:22 10° NE 06:16:04 20° E 06:18:48 10° SE visible
20 Oct 10.4 05:49:22 10° ENE 05:50:31 11° E 05:51:41 10° ESE visible
21 Oct 7.5 06:55:32 10° NNE 06:59:05 55° E 07:02:41 10° S visible
21 Oct 10.0 19:11:31 10° SW 19:13:36 15° W 19:15:41 10° NW visible
22 Oct 8.9 06:30:27 10° NNE 06:33:41 30° E 06:36:56 10° SSE visible
22 Oct 9.0 18:45:06 10° SSW 18:48:04 27° W 18:51:06 10° NW visible
23 Oct 9.9 06:05:44 10° NE 06:08:11 17° E 06:10:39 10° SE visible
25 Oct 7.9 06:47:41 10° NNE 06:51:13 46° E 06:54:47 10° S visible
25 Oct 9.8 19:03:11 10° SW 19:05:39 18° W 19:08:09 10° NW visible
